1532610001.15,12306,20.25,74184.3,17.31,2.65,0.83,0,*75
1532610002.41,12307,20.25,74186.0,17.31,2.69,0.83,0,*78
1532610003.63,12308,20.25,74182.3,17.27,2.99,1.17,0,*43
1532610004.86,12309,20.25,74184.0,17.27,2.05,0.05,0,*45
1532610006.11,12310,20.25,74182.5,17.27,2.47,0.71,0,*78
1532610007.36,12311,20.25,74186.0,17.23,2.13,0.41,0,*7F
1532610008.59,12312,20.25,74182.3,17.21,2.09,0.41,0,*75
1532610009.81,12313,20.25,74180.8,17.21,2.25,0.63,0,*7A
1532610011.04,12314,20.25,74186.8,17.19,1.71,-0.03,0,*6F
1532610012.24,12315,20.25,74184.5,17.17,1.59,0.05,0,*41
1532610013.46,12316,20.25,74182.5,17.17,2.25,0.71,0,*79
1532610014.68,12317,20.25,74184.0,17.15,1.51,0.05,0,*49
1532610015.93,12318,20.25,74182.5,17.13,1.29,-0.23,0,*56
1532610017.15,12319,20.25,74184.8,17.09,0.37,-1.13,0,*50
1532610018.37,12320,20.25,74186.3,17.09,0.59,-0.85,0,*6C
1532610019.57,12321,20.25,74184.3,17.09,0.63,-0.81,0,*60
1532610020.79,12322,20.25,74184.0,17.05,0.95,-0.29,0,*64
1532610022.02,12323,20.25,74180.0,17.05,1.05,-0.23,0,*57
1532610023.27,12324,20.25,74186.8,17.05,1.29,0.17,0,*74
1532610024.46,12325,20.25,74184.8,17.01,0.43,-0.77,0,*67
1532610025.69,12326,20.25,74186.0,16.99,0.13,-1.01,0,*51
1532610026.89,12327,20.25,74180.8,16.99,0.63,-0.45,0,*66
1532610028.14,12328,20.25,74182.5,16.97,0.21,-0.89,0,*61
1532610029.35,12329,20.25,74184.0,16.95,0.47,-0.41,0,*66
1532610030.57,12330,20.25,74182.8,16.97,0.25,-0.77,0,*6D
1532610031.77,12331,20.25,74186.5,16.95,0.21,-0.65,0,*69
1532610033.03,12332,20.25,74186.3,16.93,-0.23,-1.09,0,*78
1532610034.2,12333,20.25,74182.0,16.91,0.05,-0.81,0,*53
1532610035.41,12334,20.25,74186.3,16.93,-0.69,-1.55,0,*79
1532610036.63,12335,20.25,74186.0,16.91,-0.61,-1.43,0,*75
1532610037.88,12336,20.25,74184.3,16.89,-0.23,-0.97,0,*41
1532610039.07,12337,20.25,74180.3,16.87,-0.11,-0.73,0,*45
1532610040.3,12338,20.25,74182.0,16.87,-1.25,-1.83,0,*42
1532610041.56,12339,20.25,74186.0,16.85,-0.93,-1.43,0,*71
1532610042.82,12340,20.25,74184.0,16.85,-1.01,-1.43,0,*45
1532610044.03,12341,20.25,74184.0,16.83,-1.17,-1.63,0,*47
1532610045.23,12342,20.25,74184.3,16.83,-1.33,-1.67,0,*46
1532610046.42,12343,20.25,74184.3,16.83,-1.51,-1.75,0,*40
1532610047.64,12344,20.25,74186.0,16.77,-1.29,-1.59,0,*4D
1532610048.89,12345,20.25,74188.8,16.77,-1.35,-1.71,0,*4B
1532610050.14,12346,20.25,74182.5,16.77,-1.25,-1.47,0,*4C
1532610051.36,12347,20.25,74186.0,16.77,-1.63,-1.75,0,*4E
1532610052.6,12348,20.25,74182.3,16.75,-2.07,-2.19,0,*4B
1532610053.82,12349,20.25,74184.3,16.75,-1.55,-1.51,0,*41
1532610055.07,12350,20.25,74184.5,16.73,-1.91,-1.99,0,*43
1532610056.28,12351,20.25,74182.5,16.73,-2.43,-2.55,0,*4D
1532610057.48,12352,20.25,74182.3,16.73,-2.43,-2.31,0,*4C
1532610058.74,12353,20.25,74184.0,16.71,-2.11,-1.95,0,*45
1532610059.97,12354,20.25,74184.8,16.69,-2.31,-2.07,0,*41
1532610061.19,12355,20.25,74186.0,16.69,-2.31,-2.11,0,*47
1532610062.4,12356,20.25,74186.0,16.69,-2.59,-2.35,0,*4C
1532610063.63,12357,20.25,74186.3,16.65,-2.95,-2.63,0,*42
1532610064.9,12358,20.25,74184.8,16.67,-4.01,-3.71,0,*46
1532610066.11,12359,20.25,74184.5,16.65,-3.43,-3.15,0,*46
1532610067.35,12360,20.25,74182.5,16.63,-3.95,-3.55,0,*45
1532610068.6,12361,20.25,74186.0,16.59,-3.91,-3.51,0,*4D
1532610069.79,12362,20.25,74182.5,16.61,-4.61,-4.13,0,*4C
1532610071.01,12363,20.25,74186.0,16.55,-4.53,-4.09,0,*40
1532610072.25,12364,20.25,74184.8,16.55,-4.17,-3.63,0,*4C
1532610073.44,12365,20.25,74186.0,16.53,-3.75,-3.15,0,*49
1532610074.64,12366,20.25,74182.3,16.53,-3.39,-2.87,0,*48
1532610075.85,12367,20.25,74184.3,16.53,-3.67,-3.19,0,*44
1532610077.04,12368,20.25,74186.0,16.53,-4.05,-3.39,0,*4A
1532610078.29,12369,20.25,74180.8,16.51,-4.85,-4.25,0,*4B
1532610079.51,12370,20.25,74186.8,16.49,-5.15,-4.45,0,*44
1532610080.73,12371,20.25,74184.5,16.47,-4.65,-3.83,0,*40
1532610081.97,12372,20.25,74186.5,16.47,-4.73,-3.87,0,*40
1532610083.19,12373,20.25,74182.5,16.45,-4.81,-3.91,0,*49
1532610084.41,12374,20.25,74184.0,16.45,-5.11,-4.41,0,*4C
1532610085.64,12375,20.25,74184.3,16.43,-5.27,-4.57,0,*49
1532610086.86,12376,20.25,74184.8,16.43,-6.05,-5.27,0,*4F
1532610088.07,12377,20.25,74184.0,16.39,-6.43,-5.55,0,*44
1532610089.29,12378,20.25,74184.0,16.39,-6.59,-5.77,0,*40
1532610090.52,12379,20.25,74180.0,16.37,-6.43,-5.51,0,*40
1532610091.75,12380,20.25,74182.8,16.31,-6.55,-5.61,0,*44
1532610092.97,12381,20.25,74186.8,16.29,-6.47,-5.51,0,*4C
1532610094.2,12382,20.25,74186.5,16.31,-6.73,-5.85,0,*48
1532610095.4,12383,20.25,74186.0,16.27,-6.43,-5.43,0,*47
1532610096.6,12384,20.25,74184.5,16.23,-6.39,-5.35,0,*48
1532610097.79,12385,20.25,74184.0,16.23,-6.89,-5.97,0,*4A
1532610099.03,12386,20.25,74186.3,16.23,-7.27,-6.23,0,*40
1532610100.27,12387,20.25,74186.3,16.19,-7.15,-6.19,0,*40
1532610101.5,12388,20.25,74184.8,16.19,-7.61,-6.55,0,*44
1532610102.75,12389,20.25,74186.0,16.15,-6.93,-5.93,0,*4C
1532610103.99,12390,20.25,74186.0,16.15,-7.39,-6.27,0,*49
1532610105.27,12391,20.25,74186.0,16.13,-7.43,-6.27,0,*43
1532610106.49,12392,20.25,74186.0,16.15,-6.89,-5.93,0,*4D
1532610107.68,12393,20.25,74184.0,16.07,-7.53,-6.35,0,*46
1532610108.89,12394,20.25,74188.5,16.07,-7.65,-6.59,0,*4E
1532610110.16,12395,20.25,74186.5,16.05,-7.05,-5.93,0,*4E
1532610111.34,12396,20.25,74188.3,16.07,-7.49,-6.35,0,*48
1532610112.57,12397,20.25,74184.0,16.05,-7.27,-6.05,0,*40
1532610113.82,12398,20.25,74184.8,16.05,-6.97,-5.55,0,*43
1532610115.04,12399,20.25,74180.0,16.03,-7.73,-6.55,0,*4C
1532610116.27,12400,20.25,74184.8,16.01,-7.73,-6.69,0,*46
1532610117.49,12401,20.25,74184.3,16.01,-8.37,-7.11,0,*46
1532610118.7,12402,20.25,74186.5,15.99,-8.59,-7.39,0,*45
1532610119.92,12403,20.25,74182.3,15.97,-8.85,-7.53,0,*47
1532610121.14,12404,20.25,74184.3,15.97,-9.01,-7.83,0,*40
1532610122.38,12405,20.25,74184.8,15.93,-8.89,-7.61,0,*48
1532610123.59,12406,20.25,74186.5,15.93,-8.75,-7.49,0,*42
1532610124.84,12407,20.25,74186.5,15.89,-9.01,-7.73,0,*43
1532610126.07,12408,20.25,74180.3,15.89,-8.97,-7.77,0,*46
1532610127.32,12409,20.25,74186.0,15.89,-8.93,-7.61,0,*44
1532610128.56,12410,20.25,74184.8,15.85,-9.45,-8.37,0,*46
1532610129.77,12411,20.25,74182.3,15.83,-9.57,-8.29,0,*4D
1532610131.04,12412,20.25,74184.0,15.79,-9.15,-7.91,0,*41
1532610132.31,12413,20.25,74184.5,15.79,-9.11,-7.73,0,*48
1532610133.58,12414,20.25,74186.5,15.79,-9.15,-7.91,0,*47
1532610134.82,12415,20.25,74182.8,15.77,-8.81,-7.61,0,*4B
1532610136.03,12416,20.25,74186.0,15.77,-8.97,-7.73,0,*4C
1532610137.27,12417,20.25,74186.8,15.75,-9.67,-8.51,0,*4E
1532610138.51,12418,20.25,74182.8,15.75,-9.11,-7.83,0,*40
1532610139.78,12419,20.25,74184.3,15.75,-8.51,-7.39,0,*45
1532610141.02,12420,20.25,74184.8,15.71,-9.05,-7.77,0,*41
1532610142.24,12421,20.25,74184.0,15.71,-9.27,-8.17,0,*49
1532610143.45,12422,20.25,74184.0,15.71,-10.01,-8.93,0,*7A
1532610144.71,12423,20.25,74182.3,15.67,-10.67,-9.67,0,*76
1532610145.96,12424,20.25,74184.0,15.67,-10.79,-9.71,0,*79
1532610147.17,12425,20.25,74184.5,15.63,-10.09,-9.05,0,*78
1532610148.45,12426,20.25,74186.3,15.63,-10.71,-9.61,0,*76
1532610149.73,12427,20.25,74180.5,15.59,-10.63,-9.61,0,*7D
1532610150.98,12428,20.25,74180.3,15.59,-10.63,-9.67,0,*74
1532610152.21,12429,20.25,74182.5,15.57,-10.27,-9.37,0,*7E
1532610153.4,12430,20.25,74182.3,15.53,-9.97,-9.01,0,*44
1532610154.64,12431,20.25,74186.0,15.55,-10.23,-9.37,0,*71
1532610155.87,12432,20.25,74186.3,15.53,-9.41,-8.37,0,*49
1532610157.1,12433,20.25,74184.8,15.51,-9.61,-8.71,0,*4A
1532610158.31,12434,20.31,74188.3,15.49,-9.61,-8.71,0,*44
1532610159.53,12435,20.25,74186.3,15.51,-9.75,-8.93,0,*45
1532610160.8,12436,20.25,74182.8,15.51,-9.11,-8.11,0,*4E
1532610162.06,12437,20.25,74184.8,15.51,-8.55,-7.61,0,*46
1532610163.31,12438,20.25,74182.8,15.51,-9.61,-8.81,0,*4E
1532610164.53,12439,20.25,74180.0,15.51,-9.67,-8.93,0,*4A
1532610165.75,12440,20.25,74180.3,15.51,-9.79,-8.93,0,*4B
1532610166.98,12441,20.25,74182.3,15.51,-9.53,-8.71,0,*4E
1532610168.21,12442,20.25,74178.8,15.49,-9.61,-8.81,0,*4A
1532610169.4,12443,20.25,74180.8,15.49,-9.19,-8.29,0,*46
1532610170.63,12444,20.25,74182.0,15.49,-8.85,-8.11,0,*4E
1532610171.84,12445,20.25,74182.0,15.49,-8.67,-7.99,0,*4C
1532610173.07,12446,20.25,74176.5,15.49,-8.55,-7.77,0,*4E
1532610174.31,12447,20.25,74180.3,15.51,-8.63,-7.91,0,*4B
1532610175.58,12448,20.25,74178.5,15.51,-8.81,-8.11,0,*4F
1532610176.85,12449,20.25,74178.8,15.51,-9.11,-8.51,0,*42
1532610178.07,12450,20.25,74180.3,15.51,-8.97,-8.25,0,*46
1532610179.31,12451,20.25,74182.0,15.51,-8.63,-7.99,0,*44
1532610180.56,12452,20.25,74180.8,15.51,-8.25,-7.57,0,*47
1532610181.78,12453,20.25,74184.0,15.53,-7.87,-7.27,0,*44
1532610183.02,12454,20.25,74180.5,15.53,-7.91,-7.27,0,*44
1532610184.26,12455,20.25,74184.0,15.55,-8.45,-8.03,0,*4C
1532610185.48,12456,20.25,74182.0,15.57,-9.15,-8.71,0,*4C
1532610186.68,12457,20.25,74180.5,15.57,-9.27,-8.85,0,*47
1532610187.9,12458,20.25,74184.0,15.57,-8.59,-8.07,0,*4A
1532610189.15,12459,20.25,74184.5,15.59,-7.65,-7.19,0,*45
1532610190.36,12460,20.25,74180.5,15.59,-6.69,-6.01,0,*4A
1532610191.64,12461,20.25,74184.5,15.63,-5.85,-5.03,0,*42
1532610192.83,12462,20.25,74180.0,15.69,-4.25,-3.31,0,*47
1532610194.04,12463,20.25,74180.5,15.73,-2.87,-1.87,0,*4C
1532610195.28,12464,20.25,74180.8,15.81,-2.51,-1.55,0,*42
1532610196.51,12465,20.25,74176.8,15.91,-2.75,-1.91,0,*4C
1532610197.71,12466,20.25,74180.0,15.99,-3.07,-2.31,0,*4A
1532610198.93,12467,20.25,74182.8,16.03,-3.39,-2.55,0,*44
1532610200.17,12468,20.25,74182.0,16.11,-2.75,-1.99,0,*42
1532610201.39,12469,20.25,74182.0,16.17,-2.39,-1.75,0,*4F
1532610202.63,12470,20.25,74180.8,16.21,-2.55,-1.79,0,*44
1532610203.88,12471,20.25,74180.8,16.31,-2.67,-2.03,0,*4B
1532610205.15,12472,20.25,74182.5,16.37,-2.59,-1.83,0,*48
1532610206.35,12473,20.25,74182.8,16.45,-2.23,-1.51,0,*4E
1532610207.58,12474,20.25,74182.5,16.51,-2.31,-1.67,0,*4A
1532610208.82,12475,20.25,74182.0,16.59,-1.75,-1.13,0,*43
1532610210.05,12476,20.25,74180.0,16.63,-1.79,-0.97,0,*78
1532610211.29,12477,20.25,74180.3,16.71,-1.43,-0.81,0,*74
1532610212.5,12478,20.25,74180.5,16.77,-1.21,-0.61,0,*77
1532610213.74,12479,20.31,74184.8,16.85,-1.55,-0.93,0,*75
1532610214.98,12480,20.25,74178.8,16.93,-1.43,-0.77,0,*79
1532610216.19,12481,20.25,74180.0,17.01,-1.29,-0.77,0,*7E
1532610217.41,12482,20.25,74180.3,17.05,-1.33,-0.77,0,*72
1532610218.62,12483,20.25,74176.5,17.11,-1.21,-0.61,0,*72
1532610219.84,12484,20.25,74180.3,17.17,-1.39,-0.77,0,*7D
1532610221.05,12485,20.25,74182.0,17.27,-1.29,-0.69,0,*71
1532610222.25,12486,20.25,74180.0,17.33,-1.17,-0.69,0,*7A
1532610223.46,12487,20.31,74180.8,17.37,-0.97,-0.49,0,*44
1532610224.7,12488,20.25,74180.3,17.41,-1.35,-1.09,0,*46
1532610225.95,12489,20.25,74182.5,17.45,-1.43,-1.05,0,*4E
1532610227.19,12490,20.25,74180.5,17.55,-1.09,-0.77,0,*7D
1532610228.42,12491,20.31,74184.8,17.59,-1.25,-0.97,0,*70
1532610229.64,12492,20.25,74180.5,17.65,-1.83,-1.55,0,*4F
1532610230.88,12493,20.31,74182.8,17.73,-1.21,-0.85,0,*7D
1532610232.07,12494,20.25,74184.0,17.75,-0.77,-0.53,0,*45
1532610233.34,12495,20.31,74186.0,17.81,-1.01,-1.01,0,*49
1532610234.58,12496,20.31,74186.5,17.87,-1.05,-0.89,0,*79
1532610235.81,12497,20.25,74182.8,17.91,-1.13,-1.13,0,*4A
1532610237.0,12498,20.25,74182.0,17.99,-0.65,-0.49,0,*43
1532610238.24,12499,20.25,74184.0,18.01,-1.33,-1.35,0,*44
1532610239.52,12500,20.25,74182.3,18.07,-2.75,-2.63,0,*42
1532610240.76,12501,20.25,74180.0,18.11,-1.83,-1.79,0,*46
1532610241.96,12502,20.25,74184.8,18.17,-2.27,-2.39,0,*49
1532610243.16,12503,20.25,74182.5,18.17,-1.67,-1.67,0,*47
1532610244.41,12504,20.25,74180.0,18.21,-2.51,-2.75,0,*43
1532610245.61,12505,20.25,74182.8,18.25,-2.83,-2.95,0,*47
1532610246.86,12506,20.31,74184.8,18.25,-2.51,-2.67,0,*46
1532610248.1,12507,20.25,74184.0,18.29,-1.87,-2.03,0,*41
1532610249.34,12508,20.25,74182.5,18.35,-0.97,-1.21,0,*70
1532610250.54,12509,20.25,74182.5,18.37,-0.61,-0.65,0,*4B
1532610251.75,12510,20.25,74182.3,18.43,-0.27,-0.45,0,*40
1532610252.92,12511,20.31,74186.5,18.47,-0.29,-0.53,0,*4C
1532610254.1,12512,20.31,74182.3,18.55,-0.45,-0.73,0,*44
1532610255.29,12513,20.31,74184.5,18.55,-0.11,-0.45,0,*41
1532610256.51,12514,20.25,74182.0,18.65,0.13,-0.19,0,*63
1532610257.72,12515,20.25,74180.5,18.67,-1.09,-1.59,0,*42
1532610258.91,12516,20.25,74182.3,18.69,-0.53,-0.81,0,*45
1532610260.14,12517,20.25,74178.5,18.75,0.37,-0.11,0,*6F
1532610261.34,12518,20.25,74182.0,18.79,-0.03,-0.53,0,*70
1532610262.55,12519,20.31,74182.0,18.87,-0.03,-0.45,0,*77
1532610263.78,12520,20.31,74186.0,18.91,0.21,-0.37,0,*62
1532610265.0,12521,20.25,74180.3,18.93,0.37,-0.23,0,*63
1532610266.26,12522,20.25,74180.5,18.99,-0.27,-1.05,0,*73
1532610267.49,12523,20.31,74180.5,19.03,-1.21,-1.87,0,*4D
1532610268.68,12524,20.25,74182.5,19.07,-0.69,-1.51,0,*78
1532610269.88,12525,20.31,74182.5,19.09,-0.29,-1.17,0,*71
1532610271.11,12526,20.31,74180.5,19.13,0.25,-0.45,0,*6E
1532610272.32,12527,20.31,74180.0,19.17,0.01,-0.85,0,*51
1532610273.52,12528,20.31,74182.0,19.21,-0.49,-1.33,0,*76
1532610274.73,12529,20.31,74182.0,19.25,-0.41,-1.33,0,*7B
1532610275.97,12530,20.25,74178.0,19.25,-0.23,-1.21,0,*74
1532610277.15,12531,20.31,74180.3,19.31,-0.65,-1.63,0,*74
1532610278.39,12532,20.25,74178.5,19.35,-0.41,-1.35,0,*76
1532610279.64,12533,20.25,74178.3,19.35,-0.41,-1.47,0,*72
1532610280.87,12534,20.31,74182.0,19.37,-0.93,-2.03,0,*7B
1532610282.14,12535,20.31,74182.5,19.43,-0.23,-1.35,0,*74
1532610283.38,12536,20.31,74180.5,19.43,-0.29,-1.47,0,*78
1532610284.62,12537,20.31,74182.5,19.47,-0.15,-1.39,0,*7B
1532610285.83,12538,20.31,74182.5,19.53,0.17,-1.13,0,*56
1532610287.05,12539,20.31,74182.8,19.55,-0.37,-1.79,0,*72
1532610288.23,12540,20.31,74182.3,19.57,-0.33,-1.67,0,*75
1532610289.44,12541,20.31,74184.5,19.61,-0.15,-1.47,0,*77
1532610290.65,12542,20.31,74182.0,19.65,0.05,-1.33,0,*6F
1532610291.87,12543,20.31,74182.5,19.65,-0.57,-1.79,0,*7A
1532610293.06,12544,20.31,74182.5,19.67,-0.69,-2.15,0,*7B
1532610294.28,12545,20.31,74182.3,19.69,0.33,-1.25,0,*56
1532610295.5,12546,20.31,74180.8,19.75,0.51,-0.97,0,*64
1532610296.71,12547,20.31,74182.0,19.77,1.05,-0.45,0,*58
1532610297.92,12548,20.31,74182.3,19.83,1.25,-0.37,0,*5B
1532610299.15,12549,20.31,74182.8,19.87,1.43,-0.27,0,*5F
1532610300.38,12550,20.31,74182.8,19.87,0.79,-1.05,0,*5E
1532610301.59,12551,20.31,74182.8,19.91,-0.33,-2.07,0,*7A
1532610302.8,12552,20.31,74180.8,19.91,0.47,-1.33,0,*53
1532610304.02,12553,20.31,74184.8,19.95,0.63,-1.09,0,*59
1532610305.25,12554,20.31,74180.5,19.99,0.79,-1.05,0,*55
1532610306.44,12555,20.31,74180.3,20.03,1.05,-0.77,0,*53
1532610307.65,12556,20.25,74178.8,20.07,0.25,-1.63,0,*53
1532610308.88,12557,20.31,74180.8,20.09,0.83,-1.17,0,*53
1532610310.11,12558,20.25,74178.5,20.11,0.91,-1.13,0,*52
1532610311.37,12559,20.31,74180.8,20.13,0.55,-1.47,0,*58
1532610312.56,12560,20.31,74180.5,20.15,-0.65,-2.79,0,*74
1532610313.79,12561,20.25,74178.5,20.17,0.41,-1.63,0,*54
1532610315.02,12562,20.31,74182.3,20.17,0.41,-1.79,0,*5C
1532610316.24,12563,20.31,74180.0,20.23,0.91,-1.21,0,*5A
1532610317.49,12564,20.31,74182.3,20.25,0.79,-1.47,0,*5D
1532610318.71,12565,20.31,74180.3,20.27,1.29,-0.81,0,*51
1532610319.95,12566,20.31,74180.3,20.29,1.21,-1.01,0,*6D
1532610321.19,12567,20.31,74178.8,20.35,1.51,-0.81,0,*5F
1532610322.38,12568,20.31,74182.5,20.37,1.83,-0.41,0,*51
1532610323.61,12569,20.31,74180.3,20.39,2.05,-0.29,0,*5D
1532610324.83,12570,20.31,74184.0,20.45,1.51,-0.85,0,*5A
1532610326.04,12571,20.31,74178.5,20.49,1.71,-0.53,0,*5E
1532610327.24,12572,20.31,74180.8,20.49,2.61,0.21,0,*77
1532610328.49,12573,20.31,74178.3,20.55,2.59,0.17,0,*75
1532610329.69,12574,20.31,74178.5,20.57,2.51,0.09,0,*47
1532610330.93,12575,20.31,74180.8,20.61,2.39,-0.11,0,*59
1532610332.13,12576,20.31,74176.5,20.67,2.13,-0.29,0,*5F
1532610333.35,12577,20.31,74182.0,20.71,1.37,-1.25,0,*61
1532610334.58,12578,20.31,74180.3,20.71,1.67,-0.89,0,*5C
1532610335.81,12579,20.31,74176.8,20.73,1.85,-0.61,0,*55
1532610337.02,12580,20.31,74178.3,20.75,1.97,-0.57,0,*53
1532610338.19,12581,20.31,74178.5,20.79,2.61,0.09,0,*42
1532610339.42,12582,20.31,74180.0,20.83,2.47,-0.27,0,*51
1532610340.65,12583,20.31,74182.3,20.89,0.97,-1.87,0,*5E
1532610341.89,12584,20.31,74182.5,20.89,1.89,-0.93,0,*53
1532610343.11,12585,20.31,74182.3,20.91,2.85,0.13,0,*71
1532610344.36,12586,20.31,74176.8,20.95,3.07,0.33,0,*7F
1532610345.56,12587,20.31,74182.3,20.97,3.19,0.43,0,*74
1532610346.76,12588,20.31,74176.0,21.01,2.81,-0.03,0,*6C
1532610347.94,12589,20.31,74180.0,21.05,2.81,0.01,0,*46
1532610349.16,12590,20.31,74182.0,21.07,3.19,0.43,0,*7A
1532610350.38,12591,20.31,74180.0,21.15,3.19,0.43,0,*78
1532610351.55,12592,20.31,74178.5,21.17,2.95,0.09,0,*42
1532610352.79,12593,20.31,74178.3,21.19,3.33,0.51,0,*7D
1532610354.01,12594,20.31,74182.3,21.23,3.25,0.41,0,*75
1532610355.22,12595,20.31,74178.8,21.25,3.59,0.71,0,*7A
1532610356.46,12596,20.31,74180.0,21.27,2.85,-0.19,0,*58
1532610357.73,12597,20.31,74178.8,21.31,1.97,-1.09,0,*6E
1532610358.97,12598,20.31,74180.8,21.31,2.43,-0.57,0,*51
1532610360.19,12599,20.31,74180.3,21.37,2.85,-0.15,0,*5A
1532610361.4,12600,20.31,74180.3,21.41,0.79,-2.43,0,*58
1532610362.64,12601,20.31,74180.8,21.39,0.83,-2.35,0,*52
1532610363.88,12602,20.31,74182.3,21.41,0.67,-2.55,0,*52
1532610365.09,12603,20.31,74184.0,21.39,0.97,-2.27,0,*56
1532610366.37,12604,20.31,74182.3,21.39,1.21,-2.03,0,*6B
1532610367.6,12605,20.31,74180.3,21.41,2.21,-0.85,0,*5A
1532610368.84,12606,20.31,74184.3,21.45,2.89,-0.23,0,*53
1532610370.08,12607,20.31,74180.3,21.45,1.89,-1.39,0,*6B
1532610371.32,12608,20.31,74180.0,21.49,0.87,-2.47,0,*5D
1532610372.57,12609,20.31,74180.0,21.49,1.33,-1.91,0,*6A
1532610373.8,12610,20.31,74182.0,21.49,2.21,-0.97,0,*55
1532610375.01,12611,20.31,74182.8,21.53,2.69,-0.53,0,*5B
1532610376.25,12612,20.31,74176.0,21.53,2.09,-1.05,0,*6C
1532610377.46,12613,20.31,74182.5,21.59,3.11,0.01,0,*47
1532610378.69,12614,20.31,74180.0,21.61,3.25,0.29,0,*76
1532610379.92,12615,20.31,74176.0,21.65,2.69,-0.45,0,*5D
1532610381.11,12616,20.31,74176.5,21.67,2.65,-0.49,0,*5C
1532610382.37,12617,20.31,74178.5,21.69,2.09,-1.09,0,*6C
1532610383.58,12618,20.31,74180.0,21.71,2.31,-0.93,0,*53
1532610384.79,12619,20.31,74182.5,21.71,2.81,-0.29,0,*58
1532610385.99,12620,20.31,74178.8,21.75,3.23,0.05,0,*4C
1532610387.22,12621,20.31,74182.5,21.79,3.11,-0.11,0,*58
1532610388.45,12622,20.31,74180.5,21.81,3.15,-0.07,0,*6F
1532610389.67,12623,20.31,74180.8,21.85,3.55,0.37,0,*70
1532610390.87,12624,20.31,74180.5,21.87,3.55,0.47,0,*72
1532610392.1,12625,20.31,74176.0,21.89,3.41,0.33,0,*7B
1532610393.31,12626,20.31,74178.5,21.93,3.59,0.55,0,*7A
1532610394.5,12627,20.31,74182.5,21.97,2.65,-0.41,0,*59
1532610395.72,12628,20.31,74182.8,21.97,3.33,0.25,0,*7B
1532610396.95,12629,20.31,74182.3,22.03,3.11,0.05,0,*46
1532610398.21,12630,20.31,74182.0,22.03,2.13,-1.05,0,*61
1532610399.48,12631,20.31,74180.5,22.07,2.39,-1.05,0,*6C
1532610400.74,12632,20.31,74180.0,22.07,2.17,-0.89,0,*56
1532610401.97,12633,20.31,74180.5,22.07,2.27,-0.97,0,*5B
1532610403.19,12634,20.31,74182.8,22.11,2.91,-0.11,0,*58
1532610404.38,12635,20.31,74180.0,22.13,3.23,0.09,0,*47
1532610405.59,12636,20.31,74182.5,22.15,2.99,-0.03,0,*65
1532610406.84,12637,20.31,74180.0,22.19,3.03,-0.23,0,*58
1532610408.09,12638,20.31,74180.5,22.19,2.89,-0.23,0,*54
1532610409.3,12639,20.31,74182.3,22.27,3.55,0.47,0,*77
1532610410.54,12640,20.31,74180.0,22.29,3.49,0.47,0,*7A
1532610411.78,12641,20.31,74180.0,22.29,3.37,0.25,0,*76
1532610412.98,12642,20.31,74180.5,22.35,3.19,-0.03,0,*6D
1532610414.21,12643,20.31,74182.0,22.37,3.11,-0.03,0,*66
1532610415.44,12644,20.31,74182.3,22.37,2.43,-0.65,0,*57
1532610416.63,12645,20.31,74182.0,22.39,1.79,-1.33,0,*60
1532610417.84,12646,20.31,74184.0,22.39,1.97,-1.29,0,*68
1532610419.06,12647,20.31,74180.8,22.41,1.79,-1.29,0,*66
1532610420.31,12648,20.31,74180.8,22.41,3.19,0.29,0,*71
1532610421.54,12649,20.31,74182.5,22.47,3.41,0.51,0,*74
1532610422.74,12650,20.31,74182.8,22.51,3.75,0.97,0,*76
1532610423.95,12651,20.31,74180.0,22.51,3.85,1.09,0,*4E
1532610425.17,12652,20.31,74180.5,22.55,3.53,0.75,0,*78
1532610426.38,12653,20.31,74180.0,22.59,2.55,-0.45,0,*5C
1532610427.58,12654,20.31,74176.5,22.59,1.51,-1.25,0,*6B
1532610428.81,12655,20.31,74180.3,22.63,2.39,-0.27,0,*5D
1532610429.99,12656,20.31,74180.5,22.63,2.61,-0.03,0,*65
1532610431.22,12657,20.31,74178.8,22.67,3.37,0.91,0,*74
1532610432.42,12658,20.31,74176.3,22.67,3.41,0.97,0,*7C
1532610433.68,12659,20.31,74178.5,22.73,3.71,1.43,0,*43
1532610434.93,12660,20.31,74178.8,22.77,3.49,1.09,0,*48
1532610436.13,12661,20.31,74176.0,22.79,2.99,0.75,0,*71
1532610437.35,12662,20.31,74178.0,22.81,2.35,0.17,0,*77
1532610438.59,12663,20.31,74178.8,22.81,1.63,-0.45,0,*5C
1532610439.8,12664,20.31,74180.8,22.83,1.59,-0.41,0,*54
1532610441.02,12665,20.31,74180.0,22.83,0.75,-1.05,0,*5B
1532610442.25,12666,20.31,74178.8,22.83,0.87,-1.13,0,*52
1532610443.46,12667,20.31,74178.8,22.83,1.51,-0.07,0,*6D
1532610444.68,12668,20.31,74182.3,22.83,1.93,0.59,0,*7A
1532610445.88,12669,20.31,74182.3,22.83,2.27,0.95,0,*77
1532610447.11,12670,20.31,74178.0,22.87,1.83,0.47,0,*79
1532610448.36,12671,20.31,74180.8,22.87,2.59,1.47,0,*4D
1532610449.59,12672,20.31,74176.0,22.89,2.73,1.59,0,*47
1532610450.79,12673,20.31,74176.5,22.93,2.61,1.67,0,*43
1532610452.02,12674,20.31,74178.8,22.97,3.49,2.55,0,*49
1532610453.28,12675,20.31,74178.8,22.99,3.07,2.25,0,*4B
1532610454.53,12676,20.31,74180.3,23.03,3.49,2.81,0,*4E
1532610455.79,12677,20.31,74178.5,23.07,4.01,3.41,0,*4D
1532610457.05,12678,20.31,74178.3,23.07,3.75,3.37,0,*47
1532610458.28,12679,20.31,74182.3,23.11,3.59,3.33,0,*4B
1532610459.53,12680,20.31,74182.5,23.15,3.33,3.23,0,*44
1532610460.79,12681,20.31,74182.8,23.17,2.43,2.43,0,*46
1532610462.05,12682,20.31,74180.5,23.21,2.77,2.77,0,*40
1532610463.26,12683,20.31,74180.5,23.19,2.85,2.99,0,*47
1532610464.47,12684,20.31,74180.0,23.21,3.55,3.93,0,*4C
1532610465.67,12685,20.31,74182.3,23.25,4.33,4.81,0,*4A
1532610466.92,12686,20.31,74184.0,23.29,2.27,2.89,0,*48
1532610468.1,12687,20.31,74182.3,23.31,3.85,4.57,0,*4C
1532610469.34,12688,20.31,74180.0,23.33,0.75,0.95,0,*47
1532610470.56,12689,20.31,74182.3,23.31,-1.75,-1.39,0,*42
1532610471.81,12690,20.31,74182.0,23.29,-1.21,-1.01,0,*49
1532610473.09,12691,20.31,74182.3,23.25,-1.99,-1.87,0,*49
1532610474.31,12692,20.31,74182.5,23.23,-1.91,-2.23,0,*49
1532610475.53,12693,20.31,74182.0,23.19,-2.75,-3.07,0,*4F
1532610476.74,12694,20.31,74182.3,23.15,-3.23,-3.75,0,*43
1532610477.94,12695,20.31,74178.3,23.09,-3.27,-3.95,0,*45
1532610479.19,12696,20.31,74178.8,23.05,-2.11,-1.99,0,*40
1532610480.39,12697,20.31,74180.3,23.05,0.13,-0.45,0,*6C
1532610481.6,12698,20.31,74180.3,23.05,-0.49,-1.39,0,*7B
1532610482.85,12699,20.31,74178.0,23.03,1.09,0.51,0,*76
1532610484.09,12700,20.31,74174.5,23.07,2.47,1.83,0,*44
1532610485.34,12701,20.31,74178.0,23.07,1.97,1.13,0,*42
1532610486.56,12702,20.31,74172.8,23.11,0.33,-0.53,0,*61
1532610487.78,12703,20.31,74176.3,23.11,2.35,1.51,0,*4A
1532610489.0,12704,20.38,74180.0,23.15,2.61,1.59,0,*40
1532610490.25,12705,20.31,74178.8,23.17,2.73,1.51,0,*48
1532610491.45,12706,20.31,74182.8,23.19,2.27,0.95,0,*7D
1532610492.66,12707,20.31,74180.0,23.23,0.09,-1.35,0,*6D
1532610493.93,12708,20.31,74178.5,23.25,-0.97,-2.75,0,*79
1532610495.13,12709,20.31,74180.5,23.19,-1.21,-2.91,0,*41
1532610496.32,12710,20.31,74178.8,23.19,-1.67,-3.79,0,*4C
1532610497.52,12711,20.31,74178.8,23.19,-1.21,-3.15,0,*45
1532610498.76,12712,20.31,74178.0,23.17,-0.19,-1.91,0,*7C
1532610500.02,12713,20.31,74178.0,23.17,0.55,-1.09,0,*59
1532610501.26,12714,20.31,74176.5,23.17,-0.45,-1.99,0,*7B
1532610502.51,12715,20.31,74176.3,23.17,0.29,-0.97,0,*62
1532610503.72,12716,20.31,74176.0,23.19,1.41,0.55,0,*73
1532610504.96,12717,20.31,74174.5,23.21,1.75,1.33,0,*4F
1532610506.17,12718,20.31,74176.0,23.21,3.55,3.29,0,*49
1532610507.4,12719,20.31,74176.3,23.25,2.95,2.59,0,*47
1532610508.63,12720,20.38,74178.5,23.25,2.91,2.69,0,*4A
1532610509.86,12721,20.31,74178.5,23.27,3.19,2.85,0,*4A
1532610511.09,12722,20.31,74176.5,23.29,2.99,2.85,0,*4E
1532610512.36,12723,20.31,74174.8,23.29,3.67,3.41,0,*46
1532610513.62,12724,20.31,74178.5,23.33,3.11,2.73,0,*4B